LKMT Weather Reports


time (UTC)temp
C
wind
direction
speed
KPH
gust
KPH
rain 1hr
cm
rain 24hr
cm
rain mn
cm
humidity
%
barometer
mb
20260904190236 26 220 19.3 0.0 0.00 0.00 0.00 44 1011.0
20260904183230 26 210 24.1 0.0 0.00 0.00 0.00 41 1011.0
20260904182249 27 210 29.0 0.0 0.00 0.00 0.00 39
20260904180234 27 210 27.4 0.0 0.00 0.00 0.00 39 1010.0
20260904173231 27 210 29.0 0.0 0.00 0.00 0.00 39 1010.0
20260904172250 27 220 29.0 0.0 0.00 0.00 0.00 39
20260904170234 27 220 25.7 0.0 0.00 0.00 0.00 42 1010.0
20260904163231 27 220 27.4 0.0 0.00 0.00 0.00 42 1011.0
20260904162535 27 230 29.0 0.0 0.00 0.00 0.00 39
20260904160234 27 230 29.0 0.0 0.00 0.00 0.00 39 1011.0
20260904153231 27 220 27.4 0.0 0.00 0.00 0.00 42 1012.0
20260904152309 27 220 29.0 0.0 0.00 0.00 0.00 42
20260904150233 27 220 27.4 0.0 0.00 0.00 0.00 44 1012.0
20260904143231 27 220 32.2 0.0 0.00 0.00 0.00 42 1012.0
20260904142247 27 220 32.2 0.0 0.00 0.00 0.00 42
20260904140234 27 220 32.2 0.0 0.00 0.00 0.00 44 1013.0
20260904133230 26 230 32.2 0.0 0.00 0.00 0.00 47 1013.0
20260904132525 27 230 32.2 0.0 0.00 0.00 0.00 44
20260904130241 27 240 32.2 0.0 0.00 0.00 0.00 44 1014.0
20260904123231 26 230 24.1 0.0 0.00 0.00 0.00 47 1014.0
20260904122235 26 230 25.7 0.0 0.00 0.00 0.00 47
20260904120235 26 220 27.4 0.0 0.00 0.00 0.00 47 1015.0
20260904113231 25 210 29.0 0.0 0.00 0.00 0.00 50 1015.0
20260904112236 23 210 29.0 0.0 0.00 0.00 0.00 53
20260904110233 23 220 29.0 0.0 0.00 0.00 0.00 53 1016.0
20260904103231 23 230 27.4 0.0 0.00 0.00 0.00 53 1016.0
20260904102651 22 230 29.0 0.0 0.00 0.00 0.00 56
20260904100234 23 230 29.0 0.0 0.00 0.00 0.00 53 1016.0
20260904093230 22 230 32.2 0.0 0.00 0.00 0.00 56 1017.0
20260904092251 22 230 29.0 0.0 0.00 0.00 0.00 53
20260904090235 22 230 29.0 0.0 0.00 0.00 0.00 53 1017.0
20260904083231 21 220 24.1 0.0 0.00 0.00 0.00 60 1018.0
20260904082236 21 220 25.7 0.0 0.00 0.00 0.00 60
20260904080234 21 210 24.1 0.0 0.00 0.00 0.00 60 1018.0
20260904073230 20 230 24.1 0.0 0.00 0.00 0.00 64 1018.0
20260904072436 20 230 25.7 0.0 0.00 0.00 0.00 64
20260904070234 18 230 22.5 0.0 0.00 0.00 0.00 68 1018.0
20260904063231 17 230 14.5 0.0 0.00 0.00 0.00 72 1018.0
20260904062235 17 230 19.3 0.0 0.00 0.00 0.00 67
20260904060233 17 230 14.5 0.0 0.00 0.00 0.00 72 1018.0
20260904053224 17 230 16.1 0.0 0.00 0.00 0.00 72 1017.0
20260904052218 17 230 19.3 0.0 0.00 0.00 0.00 67
20260904050232 17 230 19.3 0.0 0.00 0.00 0.00 72 1017.0
20260904043224 17 230 16.1 0.0 0.00 0.00 0.00 72 1017.0
20260904042619 17 230 14.5 0.0 0.00 0.00 0.00 67
20260904040238 17 230 14.5 0.0 0.00 0.00 0.00 72 1017.0
20260904033224 17 220 20.9 0.0 0.00 0.00 0.00 72 1017.0
20260904032218 17 230 19.3 0.0 0.00 0.00 0.00 72
20260904030235 16 230 12.9 0.0 0.00 0.00 0.00 77 1018.0
20260904023224 17 210 14.5 0.0 0.00 0.00 0.00 67 1017.0
20260904022220 17 220 19.3 0.0 0.00 0.00 0.00 63
20260904020235 17 220 16.1 0.0 0.00 0.00 0.00 72 1017.0
20260904013223 17 220 24.1 0.0 0.00 0.00 0.00 67 1018.0
20260904012536 18 220 22.5 0.0 0.00 0.00 0.00 63
20260904010236 17 220 20.9 0.0 0.00 0.00 0.00 67 1018.0
20260904003223 17 230 22.5 0.0 0.00 0.00 0.00 67 1018.0
20260904002235 18 230 22.5 0.0 0.00 0.00 0.00 63
20260904000235 17 220 20.9 0.0 0.00 0.00 0.00 67 1018.0
20260903233224 18 230 19.3 0.0 0.00 0.00 0.00 63 1018.0
20260903232235 18 220 22.5 0.0 0.00 0.00 0.00 59
20260903230237 17 220 20.9 0.0 0.00 0.00 0.00 67 1018.0
20260903223223 17 220 14.5 0.0 0.00 0.00 0.00 67 1018.0
20260903222635 17 230 11.3 0.0 0.00 0.00 0.00 72
20260903220236 17 230 9.7 0.0 0.00 0.00 0.00 72 1018.0
20260903213224 17 250 9.7 0.0 0.00 0.00 0.00 72 1018.0
20260903212235 17 250 8.0 0.0 0.00 0.00 0.00 67
20260903210236 17 240 9.7 0.0 0.00 0.00 0.00 72 1018.0
20260903203224 17 180 11.3 0.0 0.00 0.00 0.00 67 1018.0
20260903202235 18 180 11.3 0.0 0.00 0.00 0.00 63
20260903200235 18 190 12.9 0.0 0.00 0.00 0.00 63 1018.0
20260903193224 18 180 9.7 0.0 0.00 0.00 0.00 63 1018.0
20260903192436 20 200 8.0 0.0 0.00 0.00 0.00 56